SCP
0 0 0 0 0 0 0 0 0 0 0 0 0 0 0 0 0 0 0 0 0 -0 -0 -0 0 0 0 0 0 0 0 0
0 -0 -0 -0 0 0 0 0 0 0 0 0 0 0 0 0 0 0 0 0 0 0 0 0 0 0 0 0 0 0 0 0
0 -0 -0 -0 -0 0 0 0 0 0 0 0 0 0 0 0 0 0 0 0 0 0 0 0 0 0 0 0 0 0 0 0
0 -0 -0 -0 -0 0 0 0 0 0 0 0 0 0 0 0 0 0 0 0 0 0 0 0 0 0 1 1 1 0 1 0
-0 -0 -0 -0 -0 -0 -0 -0 -0 0 0 0 0 0 0 0 1 1 0 0 0 0 1 1 1 1 1 1 1 1 1 1
0 0 -0 -0 -0 -0 -0 -0 -0 -0 -0 0 0 0 0 0 0 0 0 0 1 1 1 1 1 1 1 1 1 1 1 2
0 0 0 -0 -0 -0 -0 -0 -0 -0 -0 -0 0 0 0 0 0 0 0 0 0 0 0 1 1 1 1 0 1 0 0 1
0 0 0 0 0 0 0 -0 -0 0 0 0 0 0 0 0 0 0 0 0 0 0 0 0 0 0 0 0 0 0 0 0
0 0 0 0 0 0 0 0 0 0 0 0 0 0 0 0 0 0 0 0 0 0 0 0 0 0 0 0 0 0 0 0
0 0 0 0 0 0 0 0 0 0 0 0 0 0 0 0 0 0 0 0 0 0 0 0 0 0 0 0 0 0 0 0
-0 0 0 0 0 0 0 0 0 0 0 0 0 0 0 0 0 0 0 0 0 0 0 0 0 0 0 0 0 0 0 0
0 0 0 0 0 0 0 0 0 0 0 0 0 0 0 0 0 0 0 0 0 0 0 0 0 0 0 0 0 0 0 0
0 0 0 0 0 0 0 0 0 0 0 0 0 0 0 0 0 0 0 0 0 0 0 0 0 0 0 0 0 0 0 0
0 0 0 0 0 0 0 0 0 0 0 0 0 0 0 0 0 0 0 0 0 0 0 0 0 0 0 0 0 0 0 0
0 0 0 0 0 0 0 0 0 0 0 0 0 0 0 0 0 0 0 0 0 0 0 0 0 0 0 0 0 0 0 0
0 0 0 0 0 1 1 1 0 0 0 0 0 0 0 0 0 0 0 0 0 0 0 0 0 0 0 0 0 0 0 0
0 0 0 0 1 0 0 0 0 0 0 0 0 0 0 0 0 0 0 0 0 0 0 0 0 0 0 0 0 0 0 0
0 1 1 0 0 0 0 0 0 0 0 0 0 0 0 0 0 0 0 0 0 0 0 0 0 0 0 0 0 0 0 0
1 0 0 0 0 0 0 0 0 0 0 0 0 0 0 0 0 0 0 0 0 0 0 0 0 0 0 0 0 0 0 0
Wind_Speed_500mb
10 16 18 17 15 14 13 13 13 11 10 8 7 6 6 6 6 9 11 13 15 18 20 22 24 26 28 29 30 31 32 33
17 16 18 17 15 13 12 10 10 8 7 7 8 9 10 11 13 15 18 21 23 25 27 29 30 32 35 37 37 38 39 40
22 21 22 22 19 17 14 11 8 7 6 6 7 9 12 13 14 15 18 19 22 26 27 29 32 36 40 41 43 44 45 46
24 30 28 28 22 20 16 15 14 12 10 8 7 9 10 10 9 13 17 20 21 25 33 36 38 40 40 40 41 45 47 48
16 19 25 23 25 24 23 19 18 17 16 14 14 12 3 9 7 9 19 26 28 29 29 30 35 32 31 30 35 38 44 50
24 23 21 18 19 24 25 25 24 24 24 25 22 14 8 10 13 13 20 20 24 24 25 29 29 28 27 33 38 39 38 44
46 35 24 13 14 14 19 17 21 21 24 27 27 25 21 15 14 13 17 20 23 23 26 25 29 34 32 32 38 39 43 42
39 33 32 19 26 16 16 14 15 17 18 22 23 27 28 23 20 23 26 26 20 23 25 30 38 41 46 53 59 62 61 60
26 26 37 31 29 28 24 21 15 13 12 14 23 26 25 29 23 24 29 33 38 35 39 45 52 47 60 58 57 58 58 59
26 26 34 32 27 18 14 16 14 3 8 7 14 23 31 33 36 35 39 41 37 32 33 45 53 57 76 64 70 61 63 58
30 25 24 23 18 10 5 7 4 6 7 7 18 25 34 35 41 43 39 46 41 45 47 55 62 64 69 77 61 66 72 75
39 33 23 13 7 4 7 5 1 6 10 16 19 19 27 39 41 38 44 51 52 54 53 57 65 62 79 62 66 73 67 68
35 30 20 11 7 7 11 9 11 15 17 23 29 32 36 33 29 35 37 45 54 55 57 63 77 63 63 77 75 86 97 94
27 25 24 18 14 14 20 23 22 14 20 29 26 18 20 36 47 57 61 64 66 69 67 62 62 68 75 86 92 93 84 77
33 25 17 20 20 23 28 25 17 17 20 19 27 38 50 50 50 52 56 60 70 82 85 86 89 90 92 88 74 64 71 73
44 42 41 39 30 29 31 29 27 30 34 37 42 35 38 42 50 65 80 87 90 90 86 81 73 68 70 70 79 84 85 84
57 49 37 24 30 30 34 35 37 41 34 35 35 38 47 60 71 79 85 81 73 70 72 72 74 79 80 67 62 72 52 62
52 40 34 35 35 36 39 39 35 31 33 40 46 55 65 72 75 75 69 69 72 75 73 66 64 65 75 77 61 42 33 27
50 43 42 38 32 28 29 30 32 34 41 48 59 66 70 74 70 64 65 73 72 68 71 70 69 62 59 63 59 60 61 65
Wind_Direction_500mb
87 105 101 104 109 108 103 99 93 89 81 76 65 46 30 13 350 333 321 312 310 312 313 314 314 315 314 312 311 309 306 303
96 101 96 96 96 99 98 95 90 80 58 38 23 9 357 347 343 332 325 322 319 313 313 312 313 313 311 308 306 305 303 299
73 97 92 89 93 96 100 102 92 74 46 18 359 350 348 347 338 339 344 327 313 316 316 317 318 313 310 309 308 304 299 296
79 93 97 79 90 85 87 86 83 73 60 44 28 29 48 16 6 11 334 330 336 328 325 321 321 323 315 309 304 302 304 303
106 96 92 80 76 72 65 68 68 61 47 27 25 37 48 18 10 339 343 338 341 336 331 331 333 322 319 317 319 316 311 306
109 98 97 71 73 62 55 71 57 48 38 39 35 34 0 324 315 312 342 330 327 325 328 328 331 340 326 310 306 304 305 310
120 119 107 100 78 78 55 62 42 32 36 41 43 51 44 47 13 337 319 313 309 312 312 314 309 306 307 309 303 299 297 300
140 142 146 142 141 115 111 70 52 53 27 27 21 33 23 25 22 16 16 11 346 330 309 306 300 304 308 301 293 292 289 287
153 140 163 143 154 143 129 124 110 87 14 8 358 349 340 343 354 347 348 344 345 336 330 326 319 308 315 323 315 307 296 290
151 163 151 167 171 158 140 155 159 90 86 354 337 325 316 321 327 329 325 329 329 323 303 303 310 306 308 313 311 305 303 303
168 173 161 158 153 127 123 109 103 133 230 278 290 296 304 310 313 317 314 315 311 312 305 298 301 300 303 302 304 306 303 297
168 180 197 193 194 334 293 306 288 234 286 343 349 325 312 305 308 310 310 315 309 310 300 292 292 295 295 298 292 298 300 297
184 188 181 207 215 266 298 298 305 339 344 353 339 332 326 309 306 311 310 305 307 303 298 293 295 295 289 292 290 289 289 291
210 210 195 189 199 229 258 283 307 323 326 312 306 315 302 302 294 291 293 295 294 293 293 292 286 286 288 292 293 293 295 290
196 199 198 198 224 243 264 276 278 296 288 268 277 290 291 290 287 290 291 293 295 297 296 296 296 296 297 300 298 297 297 292
202 208 219 221 240 264 275 280 289 276 272 277 284 292 289 288 294 300 303 302 302 302 302 303 305 304 301 298 298 298 294 285
202 209 203 218 238 247 258 266 277 286 286 288 293 292 295 299 305 308 307 308 309 307 305 304 303 303 302 306 309 308 307 306
193 187 194 220 231 237 244 262 281 279 282 294 304 309 311 313 312 312 312 309 306 304 304 306 306 304 302 301 304 299 308 293
181 193 202 210 218 233 254 289 305 315 318 318 317 317 317 315 316 314 307 305 304 303 303 305 307 307 307 303 301 297 292 290
Wind_Speed_850mb
10 16 18 17 15 14 13 13 13 11 10 8 7 6 6 6 6 9 11 13 15 18 20 22 24 26 28 29 30 31 32 33
17 16 18 17 15 13 12 10 10 8 7 7 8 9 10 11 13 15 18 21 23 25 27 29 30 32 35 37 37 38 39 40
22 21 22 22 19 17 14 11 8 7 6 6 7 9 12 13 14 15 18 19 22 26 27 29 32 36 40 41 43 44 45 46
24 30 28 28 22 20 16 15 14 12 10 8 7 9 10 10 9 13 17 20 21 25 33 36 38 40 40 40 41 45 47 48
16 19 25 23 25 24 23 19 18 17 16 14 14 12 3 9 7 9 19 26 28 29 29 30 35 32 31 30 35 38 44 50
24 23 21 18 19 24 25 25 24 24 24 25 22 14 8 10 13 13 20 20 24 24 25 29 29 28 27 33 38 39 38 44
46 35 24 13 14 14 19 17 21 21 24 27 27 25 21 15 14 13 17 20 23 23 26 25 29 34 32 32 38 39 43 42
39 33 32 19 26 16 16 14 15 17 18 22 23 27 28 23 20 23 26 26 20 23 25 30 38 41 46 53 59 62 61 60
26 26 37 31 29 28 24 21 15 13 12 14 23 26 25 29 23 24 29 33 38 35 39 45 52 47 60 58 57 58 58 59
26 26 34 32 27 18 14 16 14 3 8 7 14 23 31 33 36 35 39 41 37 32 33 45 53 57 76 64 70 61 63 58
30 25 24 23 18 10 5 7 4 6 7 7 18 25 34 35 41 43 39 46 41 45 47 55 62 64 69 77 61 66 72 75
39 33 23 13 7 4 7 5 1 6 10 16 19 19 27 39 41 38 44 51 52 54 53 57 65 62 79 62 66 73 67 68
35 30 20 11 7 7 11 9 11 15 17 23 29 32 36 33 29 35 37 45 54 55 57 63 77 63 63 77 75 86 97 94
27 25 24 18 14 14 20 23 22 14 20 29 26 18 20 36 47 57 61 64 66 69 67 62 62 68 75 86 92 93 84 77
33 25 17 20 20 23 28 25 17 17 20 19 27 38 50 50 50 52 56 60 70 82 85 86 89 90 92 88 74 64 71 73
44 42 41 39 30 29 31 29 27 30 34 37 42 35 38 42 50 65 80 87 90 90 86 81 73 68 70 70 79 84 85 84
57 49 37 24 30 30 34 35 37 41 34 35 35 38 47 60 71 79 85 81 73 70 72 72 74 79 80 67 62 72 52 62
52 40 34 35 35 36 39 39 35 31 33 40 46 55 65 72 75 75 69 69 72 75 73 66 64 65 75 77 61 42 33 27
50 43 42 38 32 28 29 30 32 34 41 48 59 66 70 74 70 64 65 73 72 68 71 70 69 62 59 63 59 60 61 65
Wind_Direction_850mb
87 105 101 104 109 108 103 99 93 89 81 76 65 46 30 13 350 333 321 312 310 312 313 314 314 315 314 312 311 309 306 303
96 101 96 96 96 99 98 95 90 80 58 38 23 9 357 347 343 332 325 322 319 313 313 312 313 313 311 308 306 305 303 299
73 97 92 89 93 96 100 102 92 74 46 18 359 350 348 347 338 339 344 327 313 316 316 317 318 313 310 309 308 304 299 296
79 93 97 79 90 85 87 86 83 73 60 44 28 29 48 16 6 11 334 330 336 328 325 321 321 323 315 309 304 302 304 303
106 96 92 80 76 72 65 68 68 61 47 27 25 37 48 18 10 339 343 338 341 336 331 331 333 322 319 317 319 316 311 306
109 98 97 71 73 62 55 71 57 48 38 39 35 34 0 324 315 312 342 330 327 325 328 328 331 340 326 310 306 304 305 310
120 119 107 100 78 78 55 62 42 32 36 41 43 51 44 47 13 337 319 313 309 312 312 314 309 306 307 309 303 299 297 300
140 142 146 142 141 115 111 70 52 53 27 27 21 33 23 25 22 16 16 11 346 330 309 306 300 304 308 301 293 292 289 287
153 140 163 143 154 143 129 124 110 87 14 8 358 349 340 343 354 347 348 344 345 336 330 326 319 308 315 323 315 307 296 290
151 163 151 167 171 158 140 155 159 90 86 354 337 325 316 321 327 329 325 329 329 323 303 303 310 306 308 313 311 305 303 303
168 173 161 158 153 127 123 109 103 133 230 278 290 296 304 310 313 317 314 315 311 312 305 298 301 300 303 302 304 306 303 297
168 180 197 193 194 334 293 306 288 234 286 343 349 325 312 305 308 310 310 315 309 310 300 292 292 295 295 298 292 298 300 297
184 188 181 207 215 266 298 298 305 339 344 353 339 332 326 309 306 311 310 305 307 303 298 293 295 295 289 292 290 289 289 291
210 210 195 189 199 229 258 283 307 323 326 312 306 315 302 302 294 291 293 295 294 293 293 292 286 286 288 292 293 293 295 290
196 199 198 198 224 243 264 276 278 296 288 268 277 290 291 290 287 290 291 293 295 297 296 296 296 296 297 300 298 297 297 292
202 208 219 221 240 264 275 280 289 276 272 277 284 292 289 288 294 300 303 302 302 302 302 303 305 304 301 298 298 298 294 285
202 209 203 218 238 247 258 266 277 286 286 288 293 292 295 299 305 308 307 308 309 307 305 304 303 303 302 306 309 308 307 306
193 187 194 220 231 237 244 262 281 279 282 294 304 309 311 313 312 312 312 309 306 304 304 306 306 304 302 301 304 299 308 293
181 193 202 210 218 233 254 289 305 315 318 318 317 317 317 315 316 314 307 305 304 303 303 305 307 307 307 303 301 297 292 290